This demonstration page uses our WeatherBlox Daily Observations layout. Learn more.

Left ArrowRight Arrow

Hourly Observations for December 14, 2016

Temp ( °F °C ) Dew Point ( °F °C ) Humidity (%) Winds ( mph kmh ) Pressure ( in mb ) Visibility ( mi km ) Precip ( " mm )
12:19 am 00:19 Clear 7 -14 3 -16 85 85 WNW 7 11 30.33 1027 10 16 N/A
12:40 am 00:40 Clear 10 -12 5 -15 79 79 NW 6 9 30.33 1027 10 16 N/A
12:59 am 00:59 Clear 9 -13 5 -15 85 85 WNW 5 7 30.33 1027 10 16 N/A
1:19 am 01:19 Clear 9 -13 3 -16 78 78 NW 6 9 30.33 1027 10 16 N/A
1:40 am 01:40 Clear 9 -13 3 -16 78 78 NW 6 9 30.33 1027 10 16 N/A
1:59 am 01:59 Clear 9 -13 1 -17 72 72 NW 6 9 30.36 1028 10 16 N/A
2:19 am 02:19 Clear 9 -13 1 -17 72 72 NW 9 15 30.36 1028 10 16 N/A
2:40 am 02:40 Clear 5 -15 N/A 78 78 NNW 7 11 30.36 1028 10 16 N/A
2:59 am 02:59 Clear 5 -15 N/A 78 78 NNW 3 6 30.36 1028 10 16 N/A
3:19 am 03:19 Clear 3 -16 -2 -19 78 78 N N/A 30.33 1027 10 16 N/A
3:40 am 03:40 Clear 1 -17 -2 -19 85 85 N N/A 30.33 1027 10 16 N/A
3:59 am 03:59 Clear -2 -19 -4 -20 92 92 N N/A 30.36 1028 10 16 N/A
4:19 am 04:19 Clear N/A -4 -20 84 84 N N/A 30.33 1027 10 16 N/A
4:40 am 04:40 Clear -4 -20 -8 -22 84 84 N N/A 30.36 1028 10 16 N/A
4:59 am 04:59 Clear N/A -4 -20 84 84 N N/A 30.33 1027 10 16 N/A
5:19 am 05:19 Clear -2 -19 -6 -21 84 84 N N/A 30.36 1028 7 11 N/A
5:40 am 05:40 Clear -4 -20 -8 -22 84 84 N N/A 30.36 1028 7 11 N/A
5:59 am 05:59 Clear -4 -20 -8 -22 84 84 N N/A 30.36 1028 7 11 N/A
6:19 am 06:19 Clear -2 -19 -6 -21 84 84 N N/A 30.36 1028 10 16 N/A
6:40 am 06:40 Clear -2 -19 -6 -21 84 84 N N/A 30.36 1028 10 16 N/A
6:59 am 06:59 Clear -4 -20 -8 -22 84 84 S 3 6 30.36 1028 10 16 N/A
7:19 am 07:19 Clear -4 -20 -8 -22 84 84 N N/A 30.36 1028 7 11 N/A
7:40 am 07:40 Clear -2 -19 -6 -21 84 84 N N/A 30.39 1029 10 16 N/A
7:59 am 07:59 Sunny -4 -20 -8 -22 84 84 N N/A 30.39 1029 10 16 N/A
8:19 am 08:19 Sunny -6 -21 -9 -23 84 84 N N/A 30.39 1029 7 11 N/A
8:40 am 08:40 Sunny -4 -20 -8 -22 84 84 N N/A 30.39 1029 7 11 N/A
8:59 am 08:59 Sunny -2 -19 -6 -21 84 84 S 3 6 30.39 1029 7 11 N/A
9:19 am 09:19 Sunny N/A -4 -20 84 84 S 6 9 30.36 1028 10 16 N/A
9:40 am 09:40 Sunny 3 -16 1 -17 92 92 S 3 6 30.36 1028 10 16 N/A
9:59 am 09:59 Sunny 7 -14 3 -16 85 85 SSE 6 9 30.36 1028 10 16 N/A
10:19 am 10:19 Sunny 7 -14 3 -16 85 85 S 3 6 30.36 1028 10 16 N/A
10:40 am 10:40 Sunny 9 -13 7 -14 92 92 SSW 5 7 30.36 1028 10 16 N/A
10:59 am 10:59 Sunny 10 -12 7 -14 85 85 S 5 7 30.36 1028 10 16 N/A
11:19 am 11:19 Sunny 12 -11 5 -15 73 73 SSW 6 9 30.36 1028 10 16 N/A
11:40 am 11:40 Sunny 12 -11 3 -16 67 67 SSW 6 9 30.30 1026 10 16 N/A
11:59 am 11:59 Sunny 14 -10 3 -16 62 62 SSW 6 9 30.30 1026 10 16 N/A
12:20 pm 12:20 Partly Cloudy 14 -10 5 -15 67 67 SW 3 6 30.30 1026 10 16 N/A
12:40 pm 12:40 Partly Cloudy 14 -10 5 -15 67 67 N N/A 30.27 1025 10 16 N/A
12:59 pm 12:59 Partly Cloudy 14 -10 3 -16 62 62 N N/A 30.27 1025 10 16 N/A
1:19 pm 13:19 Partly Cloudy 18 -8 7 -14 62 62 WSW 3 6 30.27 1025 10 16 N/A
1:40 pm 13:40 Partly Cloudy 18 -8 5 -15 58 58 W 5 7 30.27 1025 10 16 N/A
1:59 pm 13:59 Partly Cloudy 16 -9 5 -15 62 62 WSW 6 9 30.27 1025 10 16 N/A
2:20 pm 14:20 Sunny 18 -8 7 -14 62 62 SW 6 9 30.27 1025 10 16 N/A
2:39 pm 14:39 Partly Cloudy 18 -8 5 -15 58 58 SW 7 11 30.24 1024 10 16 N/A
2:59 pm 14:59 Mostly Cloudy 18 -8 5 -15 58 58 SW 5 7 30.24 1024 10 16 N/A
3:20 pm 15:20 Cloudy 18 -8 5 -15 58 58 WSW 7 11 30.24 1024 10 16 N/A
3:39 pm 15:39 Cloudy 19 -7 5 -15 53 53 WSW 9 15 30.24 1024 10 16 N/A
3:59 pm 15:59 Cloudy 19 -7 5 -15 53 53 WSW 10 17 30.24 1024 10 16 N/A
4:19 pm 16:19 Cloudy 19 -7 5 -15 53 53 SW 9 15 30.24 1024 10 16 N/A
4:39 pm 16:39 Cloudy 19 -7 5 -15 53 53 WSW 10 17 30.24 1024 10 16 N/A
5:00 pm 17:00 Cloudy 19 -7 7 -14 58 58 WSW 10 17 30.24 1024 10 16 N/A
5:19 pm 17:19 Cloudy 18 -8 7 -14 62 62 W 10 17 30.24 1024 10 16 N/A
5:39 pm 17:39 Cloudy 18 -8 7 -14 62 62 WSW 10 17 30.24 1024 10 16 N/A
6:00 pm 18:00 Partly Cloudy 16 -9 5 -15 62 62 WSW 12 19 30.24 1024 10 16 N/A
6:19 pm 18:19 Clear 16 -9 5 -15 62 62 W 12 19 30.24 1024 10 16 N/A
6:39 pm 18:39 Clear 16 -9 5 -15 62 62 WSW 13 20 30.24 1024 10 16 N/A
7:00 pm 19:00 Clear 14 -10 5 -15 67 67 W 13 20 30.24 1024 10 16 N/A
7:19 pm 19:19 Clear 16 -9 7 -14 67 67 W 14 22 30.24 1024 10 16 N/A
7:39 pm 19:39 Mostly Cloudy 16 -9 7 -14 67 67 W 15 24 30.27 1025 10 16 N/A
7:59 pm 19:59 Partly Cloudy 16 -9 9 -13 73 73 W 15 24 30.27 1025 10 16 N/A
8:19 pm 20:19 Clear 16 -9 7 -14 67 67 W 20 31 30.27 1025 10 16 N/A
8:39 pm 20:39 Clear 16 -9 5 -15 62 62 WNW 16 26 30.27 1025 10 16 N/A
8:59 pm 20:59 Clear 16 -9 1 -17 53 53 WNW 21 33 30.27 1025 10 16 N/A
9:19 pm 21:19 Clear 14 -10 N/A 52 52 NW 21 33 30.27 1025 10 16 N/A
9:39 pm 21:39 Clear 14 -10 1 -17 57 57 WNW 23 37 30.27 1025 10 16 N/A
9:59 pm 21:59 Clear 12 -11 N/A 57 57 WNW 20 31 30.27 1025 10 16 N/A
10:20 pm 22:20 Clear 12 -11 N/A 57 57 WNW 20 31 30.27 1025 10 16 N/A
10:39 pm 22:39 Clear 12 -11 N/A 57 57 WNW 18 30 30.27 1025 10 16 N/A
10:59 pm 22:59 Clear 10 -12 N/A 61 61 WNW 23 37 30.33 1027 10 16 N/A
11:19 pm 23:19 Clear 10 -12 N/A 61 61 WNW 17 28 30.33 1027 10 16 N/A
11:39 pm 23:39 Clear 10 -12 N/A 61 61 WNW 18 30 30.36 1028 10 16 N/A

Powered by AerisWeather